User: anonymous   Login
Location: �clusier
(49.9361°N, 2.7869°E)
Time: 17:05:19
(UTC+00:00)
Language:

Terra - Orbit

View from above orbital plane
View from above orbital plane
View from above satellite
View from above satellite

Ground track
Ground track

The orbit data is extracted from the following two-line orbital elements,

1 25994U 99068A   21269.52444324  .00000110  00000-0  34447-4 0  9997
2 25994  98.1683 342.0593 0001384  92.2487  24.1728 14.57131321158185
Epoch (UTC): 26 September 2021 12:35:11
Eccentricity: 0.0001384
inclination: 98.1683°
perigee height: 701 km
apogee height: 703 km
right ascension of ascending node: 342.0593°
argument of perigee: 92.2487°
revolutions per day: 14.57131321
mean anomaly at epoch: 24.1728°
orbit number at epoch: 15818

The dashed part of the orbit path shows where the satellite is in the earth's shadow,  

DLR